Regional Weather Roundup
Issued by NWS

Home | Current Version | Previous Version | Text Only | Print | Product List | Glossary Off
Versions: 1 2 3 4 5 6 7 8 9 10 11 12 13 14 15 16 17 18 19 20 21 22 23 24 25 26 27 28 29 30 31 32 33 34 35 36 37 38 39 40 41 42 43 44 45 46 47 48 49 50

000
ASUS43 KLSX 211707
RWRMO

WEATHER SUMMARY FOR MISSOURI
NATIONAL WEATHER SERVICE SPRINGFIELD MO
1100 AM CST WED FEB 21 2018

NOTE: "FAIR" INDICATES FEW OR NO CLOUDS BELOW 12,000 FEET WITH NO
       SIGNIFICANT WEATHER AND/OR OBSTRUCTIONS TO VISIBILITY.
       CURRENT SKY AND/OR WEATHER CONDITIONS ARE NOT AVAILABLE FOR
       CHILLICOTHE AND FARMINGTON.

MOZ001>031-035>038-043-044-053-054-211800-
...NORTHERN AND WESTERN MISSOURI...

CITY           SKY/WX    TMP DP  RH WIND       PRES   REMARKS
KANSAS CTY INT CLOUDY    20  14  77 N12       30.59S WCI   8
KANSAS C DTWN  CLOUDY    23  14  68 N12       30.60F WCI  12
LEE`S SUMMIT   CLOUDY    21  17  84 N15       30.57F WCI   8
ST JOSEPH      MOSUNNY   20  14  77 N10       30.63F WCI   9
CHILLICOTHE      N/A     21  16  81 N8        30.63R WCI  11
KIRKSVILLE     CLOUDY    23  18  81 N14       30.59R WCI  11

$$
MOZ066>068-077>081-088>096-101>105-211800-
...SOUTHWEST MISSOURI...

CITY           SKY/WX    TMP DP  RH WIND       PRES   REMARKS
SPRINGFIELD    CLOUDY    27  24  89 NE13      30.44F WCI  16
JOPLIN         CLOUDY    25  22  88 N15G22    30.49R WCI  13
BRANSON        CLOUDY    28  28 100 N5        30.43F FOG     WCI  23

$$
MOZ032>034-039>042-045>050-055>058-069>072-211800-
...CENTRAL MISSOURI...

CITY           SKY/WX    TMP DP  RH WIND       PRES   REMARKS
COLUMBIA       PTSUNNY   26  21  81 N12       30.55R WCI  16
JEFFERSON CITY PTSUNNY   26  20  77 N8        30.57R WCI  18
ROLLA          CLOUDY    25  23  92 N10       30.51R WCI  15
SEDALIA        CLOUDY    25  23  92 N13       30.58R WCI  14
WHITEMAN AFB   PTSUNNY   24  19  81 N12       30.52R WCI  13
WARRENSBURG    CLOUDY    23  21  93 N7        30.58S WCI  15
OSAGE BEACH    CLOUDY    25  23  92 VRB5      30.54R WCI  19

$$
MOZ051-052-059>065-211800-
...EAST CENTRAL MISSOURI...

CITY           SKY/WX    TMP DP  RH WIND       PRES   REMARKS
ST LOUIS INTL  CLOUDY    28  24  85 N14       30.53R WCI  17
SPIRIT OF STL  CLOUDY    29  24  82 NE13      30.53S WCI  19
ST CHARLES     CLOUDY    28  24  85 N12       30.54R WCI  18

$$
MOZ072>076-082>087-097>100-106>115-211800-
...SOUTH CENTRAL AND SOUTHEAST MISSOURI...

CITY           SKY/WX    TMP DP  RH WIND       PRES   REMARKS
CAPE GIRARDEAU LGT RAIN  36  33  89 N14       30.45S WCI  27
FARMINGTON     CLOUDY    30  28  92 NE13      30.45F WCI  20
POPLAR BLUFF   LGT RAIN  38  35  89 N15       30.46R WCI  29
WEST PLAINS    CLOUDY    30  28  92 N9        30.46R FOG     WCI  22

$$



USA.gov is the U.S. government's official web portal to all federal, state and local government web resources and services.